COSMOS 2251 DEB, 35443

Orbit data source: Space-Track

COSMOS 2251 DEB, 35443 is space debris in LEO originally from a launch on Wed, 16 Jun 1993 UTC launched from the Plesetsk Missile And Space Complex (PKMTR). The debris from Iridium 33, an American commercial communications satellite, has been tracked extensively since its accidental collision with the defunct Russian satellite Cosmos 2251 in 2009. This event, occurring at high speed in low Earth orbit (LEO), generated thousands of pieces of space debris, significantly increasing the risk of further collisions. The Iridium 33 debris cloud has impacted space traffic management and orbital debris mitigation strategies, making it a subject of ongoing study in space situational awareness.

Loading next visibility...
Identifier
35443, 1993-036AKM
Orbit
LEO
Country
Flag of CISCIS
Related business
Manufacturer
Unknown
Mission
Spacecraft
Bus & Motor
Unknown
Mass
Unknown
Launch date (UTC)
1993-06-16 (33 years ago)
Launch vehicle
Unknown
Launch site
Plesetsk Missile And Space Complex (PKMTR)
Object type
Payload
Rocket body
Debris
Shape & HBR
Unknown shape, 0.1 m
Radar Cross Section
Small (<0.1 m²)

Expand to show TLE details & history
Last TLE update: 2 days ago

TLE from 2 days ago
0 COSMOS 2251 DEB
1 35443U 93036AKM 26263.94978655  .00309190  00000-0  47643-2 0  9990
2 35443  73.9524  99.4085 0034784 156.6881 203.5921 15.52352941911603
Epoch: 2026-09-20T22:47Z
TLE epoch observation values (Epoch: 2026-09-20T22:47:41.557Z)
Latitude
0.00002°
Longitude
117.64873°
Altitude
434.259 km
Speed
7.639 km/s
True Right ascension
06h 37m 38s
True Declination
0° 00' 00"
Sunlit
Object was in daylight at epoch
Visualization orbit readout
Latitude
Unknown
Longitude
Unknown
Altitude
Unknown
Speed
Unknown
Apparent Right ascension
Unknown
Apparent Declination
Unknown
Sunlit
N/A
Visualization observer readout
Local Sidereal Time
12:23:13
Azimuth
Unknown
Elevation
Unknown
Doppler factor
Unknown
Orbital elements
Apogee altitude
430.965 km
Perigee altitude
383.76 km
Semi-major axis
6,785.5 km
Eccentricity
0.00348
Inclination
73.9524°
RAAN
99.4085°
Arg. of periapsis
156.6881°
True anomaly
203.43321°
Mean anomaly
203.5921°
Eccentric anomaly
203.51259°
Mean motion
3.88303 °/min
Orbital period
92.71 mins
BSTAR
0.0047643
Loading maneuver chart data...
Computing Atmospheric mass density...

Documentation

Showing up to 5 results
|